MAS355 EGKK-WMKK

Flight info

Callsign MAS355
Flight time N/A
Altitude 33000
Route MIMFO Y312 DVR UL9 KONAN UL607 SPI T180 PESOV DCT EMGOD L607 UBIDU L984 RUDUS T109 HAREM T104 WLD T702 OLETU/N0472F350 T702 BADIT DCT STK DCT KLS DCT ETIDA M19 ADORU UT302 ERKAL UA4 SIV UL333 GELSU/N0477F370 UL333 DASIS L333 SOKAM UL333 SERKA B466 KALAT/N0476F390 B466 NH B210 KE R462 UUD W75 PRA N877 AGEGA L510 LEKIR DCT VAMPI N571 GUNIP M630 NIREN NIREN1J
Aircraft A333/H-SDE3GHIJ2J3J5M1RVWXY/LB2D1

Departure

Time 2026-05-06 19:26
Airport London Gatwick Airport (EGKK)

Arrival

Time N/A
Airport Kuala Lumpur International Airport (WMKK)
Time Latitude Longitude Altitude Speed Heading
2026-05-06 18:58 51.15541 -0.17183 218 ft 0 kts 135°
2026-05-06 19:07 51.15549 -0.17195 220 ft 3 kts 139°
2026-05-06 19:07 51.15560 -0.17208 217 ft 3 kts 172°
2026-05-06 19:07 51.15586 -0.17201 217 ft 3 kts 204°
2026-05-06 19:07 51.15602 -0.17181 217 ft 3 kts 253°
2026-05-06 19:08 51.15603 -0.17175 219 ft 0 kts 264°
2026-05-06 19:09 51.15603 -0.17176 219 ft 0 kts 264°
2026-05-06 19:10 51.15603 -0.17195 218 ft 6 kts 266°
2026-05-06 19:10 51.15599 -0.17295 218 ft 12 kts 266°
2026-05-06 19:11 51.15575 -0.17429 218 ft 13 kts 233°
2026-05-06 19:11 51.15532 -0.17541 217 ft 10 kts 254°
2026-05-06 19:11 51.15520 -0.17650 218 ft 11 kts 259°
2026-05-06 19:11 51.15503 -0.17774 214 ft 12 kts 256°
2026-05-06 19:12 51.15484 -0.17913 214 ft 14 kts 259°
2026-05-06 19:12 51.15464 -0.18067 218 ft 15 kts 257°
2026-05-06 19:12 51.15440 -0.18228 212 ft 14 kts 255°
2026-05-06 19:12 51.15384 -0.18272 218 ft 8 kts 175°
2026-05-06 19:13 51.15326 -0.18255 212 ft 9 kts 167°
2026-05-06 19:13 51.15257 -0.18233 214 ft 12 kts 169°
2026-05-06 19:13 51.15192 -0.18289 218 ft 12 kts 255°
2026-05-06 19:13 51.15170 -0.18449 216 ft 17 kts 255°
2026-05-06 19:14 51.15144 -0.18642 217 ft 18 kts 258°
2026-05-06 19:14 51.15116 -0.18850 219 ft 20 kts 258°
2026-05-06 19:14 51.15088 -0.19051 217 ft 17 kts 257°
2026-05-06 19:14 51.15066 -0.19209 215 ft 12 kts 257°
2026-05-06 19:15 51.15046 -0.19351 214 ft 14 kts 257°
2026-05-06 19:15 51.15029 -0.19482 222 ft 12 kts 258°
2026-05-06 19:15 51.15012 -0.19605 219 ft 9 kts 257°
2026-05-06 19:15 51.14998 -0.19708 212 ft 10 kts 257°
2026-05-06 19:16 51.14984 -0.19810 218 ft 0 kts 257°
2026-05-06 19:16 51.14981 -0.19825 216 ft 3 kts 257°
2026-05-06 19:16 51.14976 -0.19866 216 ft 5 kts 257°
2026-05-06 19:16 51.14967 -0.19933 212 ft 7 kts 257°
2026-05-06 19:17 51.14954 -0.20024 218 ft 10 kts 257°
2026-05-06 19:17 51.14944 -0.20099 217 ft 11 kts 257°
2026-05-06 19:17 51.14926 -0.20227 216 ft 13 kts 257°
2026-05-06 19:17 51.14906 -0.20371 214 ft 14 kts 257°
2026-05-06 19:18 51.14883 -0.20537 220 ft 16 kts 257°
2026-05-06 19:18 51.14858 -0.20719 213 ft 18 kts 257°
2026-05-06 19:18 51.14836 -0.20875 217 ft 3 kts 257°
2026-05-06 19:18 51.14830 -0.20921 217 ft 5 kts 257°
2026-05-06 19:19 51.14820 -0.20988 215 ft 7 kts 257°
2026-05-06 19:19 51.14808 -0.21075 218 ft 9 kts 257°
2026-05-06 19:19 51.14787 -0.21176 220 ft 10 kts 249°
2026-05-06 19:19 51.14773 -0.21264 209 ft 5 kts 256°
2026-05-06 19:20 51.14773 -0.21266 209 ft 0 kts 256°
2026-05-06 19:20 51.14771 -0.21274 211 ft 2 kts 256°
2026-05-06 19:20 51.14767 -0.21305 215 ft 4 kts 256°
2026-05-06 19:20 51.14758 -0.21363 214 ft 7 kts 251°
2026-05-06 19:21 51.14731 -0.21399 220 ft 0 kts 194°
2026-05-06 19:24 51.14706 -0.21401 211 ft 8 kts 177°
2026-05-06 19:24 51.14652 -0.21353 218 ft 9 kts 150°
2026-05-06 19:24 51.14615 -0.21332 220 ft 0 kts 162°
2026-05-06 19:24 51.14595 -0.21322 219 ft 8 kts 163°
2026-05-06 19:25 51.14536 -0.21258 219 ft 11 kts 127°
2026-05-06 19:25 51.14523 -0.21164 216 ft 2 kts 83°
2026-05-06 19:25 51.14528 -0.21119 219 ft 15 kts 79°
2026-05-06 19:25 51.14597 -0.20619 222 ft 75 kts 77°
2026-05-06 19:26 51.14749 -0.19539 215 ft 122 kts 78°
2026-05-06 19:26 51.14966 -0.18020 353 ft 148 kts 76°
2026-05-06 19:26 51.15217 -0.16496 950 ft 141 kts 74°
2026-05-06 19:26 51.15429 -0.14913 1386 ft 155 kts 75°
2026-05-06 19:27 51.15663 -0.13119 1668 ft 180 kts 75°
2026-05-06 19:27 51.15898 -0.11346 1896 ft 200 kts 75°
2026-05-06 19:27 51.16201 -0.09099 2191 ft 223 kts 76°
2026-05-06 19:27 51.16541 -0.06594 2635 ft 237 kts 76°
2026-05-06 19:28 51.16838 -0.03972 3139 ft 245 kts 82°
2026-05-06 19:28 51.16885 -0.01223 3587 ft 250 kts 89°
2026-05-06 19:28 51.16836 0.01554 4288 ft 253 kts 90°
2026-05-06 19:28 51.16775 0.04377 4977 ft 258 kts 91°
2026-05-06 19:29 51.16715 0.07241 5755 ft 258 kts 91°
2026-05-06 19:29 51.16658 0.10118 6531 ft 260 kts 91°
2026-05-06 19:29 51.16601 0.13021 7186 ft 266 kts 91°
2026-05-06 19:29 51.16566 0.15877 7533 ft 287 kts 90°
2026-05-06 19:30 51.16732 0.19116 8216 ft 299 kts 75°
2026-05-06 19:30 51.17399 0.22275 9076 ft 304 kts 67°
2026-05-06 19:30 51.18198 0.25425 9997 ft 308 kts 66°
2026-05-06 19:30 51.19010 0.28565 10811 ft 313 kts 66°
2026-05-06 19:31 51.19845 0.31797 11637 ft 318 kts 66°
2026-05-06 19:31 51.20697 0.35081 12486 ft 322 kts 66°
2026-05-06 19:31 51.22430 0.41762 14064 ft 331 kts 66°
2026-05-06 19:32 51.23316 0.45172 14796 ft 334 kts 66°
2026-05-06 19:32 51.24216 0.48630 15515 ft 339 kts 66°
2026-05-06 19:32 51.25128 0.52126 16220 ft 343 kts 66°
2026-05-06 19:32 51.26052 0.55662 16931 ft 347 kts 66°
2026-05-06 19:33 51.26983 0.59229 17630 ft 351 kts 66°
2026-05-06 19:33 51.27917 0.62810 18309 ft 355 kts 66°
2026-05-06 19:33 51.28868 0.66458 18893 ft 358 kts 66°
2026-05-06 19:33 51.29818 0.70172 19474 ft 362 kts 69°
2026-05-06 19:34 51.30314 0.74122 20040 ft 367 kts 88°
2026-05-06 19:34 51.30178 0.78216 20626 ft 371 kts 95°
2026-05-06 19:34 51.29903 0.82347 21203 ft 374 kts 96°
2026-05-06 19:34 51.29619 0.86497 21766 ft 377 kts 96°
2026-05-06 19:35 51.29335 0.90673 22318 ft 380 kts 96°
2026-05-06 19:35 51.29051 0.94882 22876 ft 383 kts 96°
2026-05-06 19:35 51.28776 0.99031 23415 ft 386 kts 96°
2026-05-06 19:35 51.28503 1.03207 23870 ft 389 kts 96°
2026-05-06 19:36 51.28221 1.07507 24320 ft 392 kts 96°
2026-05-06 19:36 51.27936 1.11837 24770 ft 394 kts 96°
2026-05-06 19:36 51.27646 1.16214 25213 ft 397 kts 96°
2026-05-06 19:36 51.27353 1.20610 25649 ft 399 kts 96°
2026-05-06 19:37 51.27062 1.24971 26089 ft 401 kts 96°
2026-05-06 19:37 51.26764 1.29416 26519 ft 404 kts 96°
2026-05-06 19:37 51.26462 1.33886 26922 ft 406 kts 96°
2026-05-06 19:37 51.26158 1.38386 27347 ft 409 kts 96°
2026-05-06 19:38 51.25849 1.42918 27750 ft 411 kts 96°
2026-05-06 19:38 51.25540 1.47463 28143 ft 414 kts 96°
2026-05-06 19:38 51.25226 1.52046 28536 ft 416 kts 96°
2026-05-06 19:38 51.24910 1.56658 28903 ft 419 kts 96°
2026-05-06 19:39 51.24591 1.61282 29302 ft 421 kts 96°
2026-05-06 19:39 51.24268 1.65945 29684 ft 423 kts 96°
2026-05-06 19:39 51.23942 1.70630 29993 ft 427 kts 96°
2026-05-06 19:39 51.23611 1.75368 30150 ft 434 kts 96°
2026-05-06 19:40 51.23272 1.80196 30280 ft 441 kts 96°
2026-05-06 19:40 51.22927 1.85079 30560 ft 443 kts 96°
2026-05-06 19:40 51.22580 1.89959 31041 ft 440 kts 96°
2026-05-06 19:40 51.22238 1.94805 31489 ft 438 kts 96°
2026-05-06 19:41 51.21896 1.99630 31913 ft 437 kts 96°
2026-05-06 19:41 51.21550 2.04444 32332 ft 436 kts 96°
2026-05-06 19:41 51.21133 2.09228 32712 ft 436 kts 102°
2026-05-06 19:41 51.20467 2.13949 32959 ft 437 kts 104°
2026-05-06 19:42 51.18907 2.23247 32983 ft 436 kts 105°
2026-05-06 19:42 51.17259 2.32692 32983 ft 451 kts 105°
2026-05-06 19:43 51.15587 2.42504 32980 ft 467 kts 105°
2026-05-06 19:43 51.13883 2.52658 32975 ft 481 kts 105°
2026-05-06 19:44 51.12126 2.63108 32979 ft 492 kts 105°
2026-05-06 19:44 51.10346 2.73633 32970 ft 492 kts 105°
2026-05-06 19:45 51.08563 2.84092 32964 ft 492 kts 105°
2026-05-06 19:45 51.06761 2.94594 32965 ft 491 kts 105°
2026-05-06 19:46 51.04952 3.05075 32962 ft 491 kts 105°
2026-05-06 19:46 51.03134 3.15547 32959 ft 491 kts 105°
2026-05-06 19:47 51.01323 3.25916 32951 ft 491 kts 105°
2026-05-06 19:47 50.99488 3.36360 32950 ft 490 kts 106°
2026-05-06 19:48 50.97650 3.46761 32947 ft 490 kts 106°
2026-05-06 19:48 50.95794 3.57207 32943 ft 490 kts 106°
2026-05-06 19:49 50.93934 3.67613 32936 ft 490 kts 106°
2026-05-06 19:49 50.92065 3.78009 32942 ft 490 kts 106°
2026-05-06 19:50 50.90187 3.88392 32936 ft 490 kts 106°
2026-05-06 19:50 50.88316 3.98683 32940 ft 490 kts 107°
2026-05-06 19:51 50.86422 4.09038 32941 ft 490 kts 107°
2026-05-06 19:51 50.84516 4.19403 32942 ft 490 kts 107°
2026-05-06 19:52 50.82605 4.29733 32939 ft 490 kts 107°
2026-05-06 19:52 50.80685 4.40059 32941 ft 490 kts 107°
2026-05-06 19:53 50.78754 4.50382 32939 ft 489 kts 107°
2026-05-06 19:53 50.76814 4.60702 32940 ft 489 kts 107°
2026-05-06 19:54 50.74875 4.70956 32940 ft 489 kts 107°
2026-05-06 19:54 50.72924 4.81217 32939 ft 490 kts 107°
2026-05-06 19:55 50.70958 4.91501 32939 ft 490 kts 107°
2026-05-06 19:55 50.68978 5.01800 32939 ft 490 kts 108°
2026-05-06 19:56 50.66990 5.12087 32939 ft 490 kts 108°
2026-05-06 19:56 50.64997 5.22345 32939 ft 489 kts 108°
2026-05-06 19:57 50.62998 5.32579 32940 ft 488 kts 108°
2026-05-06 19:57 50.61005 5.42730 32917 ft 488 kts 108°
2026-05-06 19:58 50.58989 5.52941 32924 ft 488 kts 108°
2026-05-06 19:58 50.56966 5.63134 32917 ft 488 kts 108°
2026-05-06 19:59 50.54951 5.73235 32916 ft 486 kts 108°
2026-05-06 19:59 50.52918 5.83373 32912 ft 486 kts 108°
2026-05-06 20:00 50.50876 5.93500 32915 ft 486 kts 109°
2026-05-06 20:00 50.48822 6.03637 32895 ft 486 kts 109°
2026-05-06 20:01 50.46762 6.13751 32881 ft 486 kts 109°
2026-05-06 20:01 50.44711 6.23775 32881 ft 486 kts 109°
2026-05-06 20:02 50.42628 6.33896 32867 ft 486 kts 109°
2026-05-06 20:02 50.40539 6.43991 32868 ft 486 kts 109°
2026-05-06 20:03 50.38814 6.52294 32864 ft 486 kts 109°
2026-05-06 20:03 50.36374 6.63988 32864 ft 485 kts 110°
2026-05-06 20:04 50.34608 6.72406 32864 ft 485 kts 110°
2026-05-06 20:04 50.32506 6.82378 32861 ft 485 kts 110°
2026-05-06 20:05 50.30380 6.92411 32850 ft 485 kts 110°
2026-05-06 20:05 50.28251 7.02414 32857 ft 485 kts 110°
2026-05-06 20:06 50.26110 7.12424 32856 ft 485 kts 110°
2026-05-06 20:06 50.23963 7.22410 32857 ft 485 kts 110°
2026-05-06 20:07 50.21803 7.32408 32859 ft 485 kts 110°
2026-05-06 20:07 50.19638 7.42384 32862 ft 483 kts 111°
2026-05-06 20:08 50.17479 7.52278 32859 ft 482 kts 111°
2026-05-06 20:08 50.15311 7.62164 32860 ft 481 kts 111°
2026-05-06 20:09 50.13155 7.71957 32856 ft 481 kts 111°
2026-05-06 20:09 50.10975 7.81808 32853 ft 481 kts 111°
2026-05-06 20:10 50.08788 7.91648 32856 ft 481 kts 111°
2026-05-06 20:10 50.06589 8.01487 32856 ft 481 kts 111°
2026-05-06 20:11 50.04382 8.11318 32859 ft 481 kts 111°
2026-05-06 20:11 50.02165 8.21155 32859 ft 481 kts 111°
2026-05-06 20:12 49.99959 8.30897 32861 ft 480 kts 112°
2026-05-06 20:12 49.97733 8.40673 32860 ft 479 kts 112°
2026-05-06 20:13 49.95465 8.50413 32855 ft 478 kts 116°
2026-05-06 20:13 49.92456 8.59579 32855 ft 475 kts 122°
2026-05-06 20:14 49.89201 8.68498 32843 ft 475 kts 123°
2026-05-06 20:14 49.85908 8.77323 32845 ft 475 kts 123°
2026-05-06 20:15 49.82599 8.86187 32840 ft 474 kts 122°
2026-05-06 20:15 49.79298 8.95038 32841 ft 474 kts 122°
2026-05-06 20:16 49.75996 9.03875 32843 ft 474 kts 122°
2026-05-06 20:16 49.72695 9.12683 32838 ft 472 kts 123°
2026-05-06 20:17 49.69397 9.21448 32837 ft 471 kts 123°
2026-05-06 20:17 49.66119 9.30129 32832 ft 471 kts 123°
2026-05-06 20:18 49.62793 9.38846 32822 ft 470 kts 126°
2026-05-06 20:18 49.58816 9.46766 32796 ft 466 kts 133°
2026-05-06 20:19 49.54566 9.54320 32824 ft 466 kts 135°
2026-05-06 20:19 49.50272 9.61779 32825 ft 466 kts 135°
2026-05-06 20:20 49.45999 9.69194 32830 ft 466 kts 135°
2026-05-06 20:20 49.41697 9.76669 32829 ft 466 kts 135°
2026-05-06 20:21 49.37405 9.84117 32829 ft 466 kts 135°
2026-05-06 20:21 49.33096 9.91563 32828 ft 466 kts 135°
2026-05-06 20:22 49.28783 9.98988 32831 ft 467 kts 135°
2026-05-06 20:22 49.24453 10.06420 32832 ft 467 kts 135°
2026-05-06 20:23 49.20119 10.13841 32844 ft 467 kts 135°
2026-05-06 20:23 49.15787 10.21245 32855 ft 467 kts 135°
2026-05-06 20:24 49.11398 10.28561 32858 ft 468 kts 137°
2026-05-06 20:24 49.06932 10.35725 32875 ft 468 kts 137°
2026-05-06 20:25 49.02423 10.42913 32874 ft 469 kts 137°
2026-05-06 20:25 48.97902 10.50117 32885 ft 470 kts 137°
2026-05-06 20:26 48.93377 10.57321 32882 ft 470 kts 137°
2026-05-06 20:26 48.88888 10.64457 32885 ft 470 kts 138°
2026-05-06 20:27 48.84357 10.71640 32885 ft 471 kts 138°
2026-05-06 20:27 48.79823 10.78803 32871 ft 470 kts 138°
2026-05-06 20:28 48.75260 10.85968 32887 ft 472 kts 138°
2026-05-06 20:28 48.70685 10.93124 32862 ft 473 kts 138°
2026-05-06 20:29 48.66097 11.00278 32863 ft 473 kts 139°
2026-05-06 20:29 48.61520 11.07398 32860 ft 474 kts 137°
2026-05-06 20:30 48.56232 11.20202 32862 ft 487 kts 116°
2026-05-06 20:31 48.53868 11.29814 32869 ft 490 kts 114°
2026-05-06 20:31 48.51650 11.39482 32883 ft 491 kts 114°